Location: Ostrava
(49.8330°N, 18.2830°E)
Time: 02:36:54
(UTC+02:00)

Envisat - Pass Details

Date: 24 January 2022
Orbit: 764 x 765 km, 98.2° (Epoch: 22 May)

Event Time Altitude Azimuth Distance (km) Brightness Sun altitude
Rises 06:29:34 0° 3° (N) 3,243 6.1 -9.8°
Reaches altitude 10° 06:32:34 10° 344° (NNW) 2,312 5.2 -9.3°
Maximum altitude 06:35:50 18° 304° (NW) 1,842 4.4 -8.8°
Drops below altitude 10° 06:39:05 10° 264° (W) 2,303 4.9 -8.3°
Sets 06:42:05 0° 245° (WSW) 3,225 5.8 -7.9°
